FW1477 Weather Reports


time (UTC)temp
C
wind
direction
speed
KPH
gust
KPH
rain 1hr
cm
rain 24hr
cm
rain mn
cm
humidity
%
barometer
mb
20260504081016 16 248 11.3 22.5 0.00 0.00 0.00 56 1017.6
20260504050016 18 248 14.5 33.8 0.00 0.00 0.00 55 1019.1
20260504045016 18 248 14.5 40.2 0.00 0.00 0.00 55 1018.9
20260504044016 18 248 11.3 25.7 0.00 0.00 0.00 55 1019.1
20260504043038 19 248 9.7 30.6 0.00 0.00 0.00 54 1019.0
20260504042016 19 248 12.9 41.8 0.00 0.00 0.00 53 1019.3
20260504041016 19 248 17.7 40.2 0.00 0.00 0.00 52 1019.5
20260504040017 20 248 20.9 43.5 0.00 0.00 0.00 51 1019.2
20260504035016 20 248 12.9 30.6 0.00 0.00 0.00 50 1018.9
20260504034016 20 225 14.5 43.5 0.00 0.00 0.00 48 1018.4
20260504033016 20 225 14.5 37.0 0.00 0.00 0.00 47 1018.4
20260504032017 20 225 14.5 41.8 0.00 0.00 0.00 44 1018.2
20260504030016 21 248 11.3 32.2 0.00 0.00 0.00 41 1017.9
20260504025016 21 248 11.3 32.2 0.00 0.00 0.00 40 1018.1
20260504024016 21 248 17.7 38.6 0.00 0.00 0.00 39 1018.0
20260504023017 21 225 16.1 46.7 0.00 0.00 0.00 38 1017.8
20260504022015 22 225 12.9 45.1 0.00 0.00 0.00 36 1017.8
20260504021017 22 225 9.7 40.2 0.00 0.00 0.00 34 1017.4
20260504020016 22 0.0 0.0 0.00 0.00 0.00 32 1017.7
20260504015016 23 0.0 0.0 0.00 0.00 0.00 30 1017.4
20260504014016 23 0.0 0.0 0.00 0.00 0.00 28 1017.1
20260504013017 23 0.0 0.0 0.00 0.00 0.00 28 1017.6
20260504004016 26 248 1.6 33.8 0.00 0.00 0.00 21 1017.8
20260504003016 27 248 16.1 38.6 0.00 0.00 0.00 18 1017.7
20260504002015 27 225 17.7 38.6 0.00 0.00 0.00 16 1017.8
20260504001015 27 248 12.9 35.4 0.00 0.00 0.00 15 1017.5
20260504000016 27 225 16.1 45.1 0.00 0.00 0.00 15 1017.5
20260503235015 28 248 16.1 40.2 0.00 0.00 0.00 14 1017.6
20260503234015 28 225 22.5 46.7 0.00 0.00 0.00 14 1017.6
20260503233016 28 248 14.5 40.2 0.00 0.00 0.00 13 1017.2
20260503232015 29 225 14.5 33.8 0.00 0.00 0.00 11 1017.6
20260503231015 29 225 14.5 37.0 0.00 0.00 0.00 10 1017.7
20260503225016 29 135 9.7 25.7 0.00 0.00 0.00 10 1017.7
20260503224015 29 135 9.7 37.0 0.00 0.00 0.00 11 1017.4
20260503223015 29 135 9.7 24.1 0.00 0.00 0.00 11 1017.8
20260503222036 29 135 8.0 25.7 0.00 0.00 0.00 11 1017.8
20260503221016 28 135 4.8 22.5 0.00 0.00 0.00 13 1017.6
20260503220017 28 135 8.0 33.8 0.00 0.00 0.00 13 1017.7
20260503215017 28 0.0 0.0 0.00 0.00 0.00 13 1017.9
20260503214017 28 0.0 0.0 0.00 0.00 0.00 14 1018.2
20260503213058 28 0.0 0.0 0.00 0.00 0.00 15 1018.4
20260503212037 28 0.0 0.0 0.00 0.00 0.00 14 1018.7
20260503211018 28 0.0 0.0 0.00 0.00 0.00 14 1018.9
20260503210017 28 0.0 0.0 0.00 0.00 0.00 14 1019.2
20260503205017 27 0.0 0.0 0.00 0.00 0.00 14 1019.0
20260503204037 28 0.0 0.0 0.00 0.00 0.00 13 1019.5
20260503203037 27 0.0 0.0 0.00 0.00 0.00 13 1019.4
20260503202027 27 0.0 0.0 0.00 0.00 0.00 14 1019.7
20260503201017 26 0.0 0.0 0.00 0.00 0.00 15 1019.4
20260503200016 26 0.0 0.0 0.00 0.00 0.00 15 1019.6
20260503195017 26 0.0 0.0 0.00 0.00 0.00 16 1019.9
20260503194038 26 0.0 0.0 0.00 0.00 0.00 16 1020.1
20260503193017 26 0.0 0.0 0.00 0.00 0.00 17 1020.2
20260503191021 25 0.0 0.0 0.00 0.00 0.00 18 1020.0
20260503190016 25 0.0 0.0 0.00 0.00 0.00 19 1020.4
20260503185021 25 0.0 0.0 0.00 0.00 0.00 19 1020.2
20260503184016 25 0.0 0.0 0.00 0.00 0.00 21 1020.9
20260503183017 24 0.0 0.0 0.00 0.00 0.00 23 1020.8
20260503182016 23 0.0 0.0 0.00 0.00 0.00 24 1021.0
20260503181016 23 0.0 0.0 0.00 0.00 0.00 24 1020.7
20260503180037 22 0.0 0.0 0.00 0.00 0.00 26 1020.9
20260503175016 22 0.0 0.0 0.00 0.00 0.00 27 1021.2
20260503174016 22 0.0 0.0 0.00 0.00 0.00 28 1020.9
20260503171016 20 0.0 0.0 0.00 0.00 0.00 35 1021.2